sat.trackr.live / text

‹ back to catalog

STARLINK-1199

NORAD 45201 · 2020-012Z

PAYLOAD ACTIVE UNKNOWN

§ Identity

Operator
Country
US
Launch date
2020-02-17
Launch site
AFETR
Launch vehicle
Mass (kg)
RCS (m²)

Purposes: comms

External: N2YO · Heavens-Above · Gunter

§ Orbital elements

Epoch: 2026-09-20T02:28:44.522112Z

Period
93.29 min
Inclination
53.1509°
Eccentricity
0.0001744
Mean motion
15.43597256 rev/d
Perigee alt
434.3 km
Apogee alt
436.7 km
Semi-major
6,813.6 km
B*
1.2698e-3
RAAN
193.0348°
Arg perigee
106.4213°
Mean anomaly
253.6985°
Rev number
36,503

§ Raw data

STARLINK-11991 45201U 20012Z   26263.10329308  .00058014  00000+0  12698-2 0  99972 45201  53.1509 193.0348 0001744 106.4213 253.6985 15.43597256365030

JSON: /api/v1/satellites/45201 · /tle

For live sub-satellite position, see the globe view (requires WebGL).

§ Visibility from observer

Set your observer location to see the next 7 days of passes ≥ 10°. The values pass through the URL so the page stays shareable.

No JS? Fill the form by hand. The geolocation button needs JavaScript.